| time (UTC) | temp F | wind direction | speed knots | gust knots | rain 1hr in | rain 24hr in | rain mn in | humidity % | barometer mb |
| 20260906084513 | 66 | 92 | 7.0 | 10.4 | 0.00 | 0.17 | 0.17 | 89 | 1011.8 |
| 20260906083013 | 67 | 347 | 1.7 | 9.6 | 0.00 | 0.17 | 0.17 | 88 | 1011.8 |
| 20260906081512 | 67 | 41 | 7.0 | 10.4 | 0.00 | 0.17 | 0.17 | 86 | 1011.7 |
| 20260906080010 | 66 | 98 | 6.1 | 13.0 | 0.00 | 0.17 | 0.17 | 92 | 1011.7 |
| 20260906074509 | 64 | 96 | 9.6 | 13.0 | 0.00 | 0.17 | 0.17 | 98 | 1011.8 |
| 20260906073007 | 64 | 57 | 8.7 | 13.0 | 0.01 | 0.17 | 0.17 | 99 | 1011.8 |
| 20260906071507 | 64 | 72 | 10.4 | 14.8 | 0.13 | 0.17 | 0.17 | 99 | 1011.6 |
| 20260906070006 | 64 | 42 | 7.8 | 13.9 | 0.17 | 0.17 | 0.17 | 99 | 1011.8 |
| 20260906064504 | 64 | 316 | 10.4 | 16.5 | 0.17 | 0.17 | 0.17 | 99 | 1011.5 |
| 20260906063001 | 64 | 115 | 11.3 | 20.0 | 0.16 | 0.16 | 0.16 | 98 | 1011.8 |
| 20260906061557 | 67 | 46 | 13.9 | 19.1 | 0.03 | 0.03 | 0.03 | 93 | 1011.9 |
| 20260906060055 | 68 | 107 | 6.1 | 10.4 | 0.00 | 0.00 | 0.00 | 89 | 1011.8 |
| 20260906054554 | 68 | 106 | 7.8 | 11.3 | 0.00 | 0.00 | 0.00 | 87 | 1011.8 |
| 20260906053053 | 68 | 84 | 8.7 | 12.2 | 0.00 | 0.00 | 0.00 | 90 | 1011.8 |
| 20260906051601 | 68 | 102 | 11.3 | 13.0 | 0.00 | 0.00 | 0.00 | 88 | 1011.8 |
| 20260906044553 | 68 | 74 | 7.0 | 12.2 | 0.00 | 0.00 | 0.00 | 91 | 1011.9 |
| 20260906043057 | 67 | 93 | 12.2 | 14.8 | 0.00 | 0.00 | 0.00 | 94 | 1011.8 |
| 20260906041547 | 68 | 93 | 14.8 | 19.1 | 0.00 | 0.00 | 0.00 | 92 | 1011.8 |
| 20260906040043 | 69 | 58 | 10.4 | 15.6 | 0.00 | 0.00 | 0.00 | 90 | 1011.8 |
| 20260906034604 | 69 | 102 | 4.3 | 7.8 | 0.00 | 0.00 | 0.00 | 91 | 1011.6 |
| 20260906033039 | 68 | 353 | 4.3 | 7.0 | 0.00 | 0.00 | 0.00 | 88 | 1011.5 |
| 20260906031545 | 69 | 23 | 3.5 | 7.8 | 0.00 | 0.00 | 0.00 | 88 | 1011.3 |
| 20260906030038 | 69 | 323 | 3.5 | 6.1 | 0.00 | 0.00 | 0.00 | 86 | 1011.2 |
| 20260906024536 | 70 | 347 | 3.5 | 6.1 | 0.00 | 0.00 | 0.00 | 84 | 1011.2 |
| 20260906023036 | 70 | 337 | 0.9 | 5.2 | 0.00 | 0.00 | 0.00 | 83 | 1011.3 |
| 20260906021538 | 71 | 14 | 2.6 | 9.6 | 0.00 | 0.00 | 0.00 | 82 | 1011.2 |
| 20260906020033 | 71 | 27 | 7.0 | 10.4 | 0.00 | 0.00 | 0.00 | 83 | 1011.3 |
| 20260906014532 | 70 | 21 | 3.5 | 7.0 | 0.00 | 0.00 | 0.00 | 79 | 1011.2 |
| 20260906013049 | 71 | 357 | 5.2 | 7.8 | 0.00 | 0.00 | 0.00 | 79 | 1011.0 |
| 20260906011529 | 71 | 319 | 4.3 | 7.0 | 0.00 | 0.00 | 0.00 | 78 | 1010.9 |
| 20260906010029 | 72 | 330 | 4.3 | 7.0 | 0.00 | 0.00 | 0.00 | 75 | 1010.7 |
| 20260906004526 | 73 | 331 | 2.6 | 5.2 | 0.00 | 0.00 | 0.00 | 75 | 1010.5 |
| 20260906003024 | 74 | 327 | 4.3 | 7.0 | 0.00 | 0.00 | 0.00 | 73 | 1010.4 |
| 20260906001523 | 74 | 7 | 3.5 | 6.1 | 0.00 | 0.00 | 0.00 | 72 | 1010.2 |
| 20260906000022 | 75 | 321 | 3.5 | 7.8 | 0.00 | 0.00 | 0.00 | 71 | 1010.0 |
| 20260905234520 | 75 | 3 | 1.7 | 6.1 | 0.00 | 0.00 | 0.00 | 68 | 1009.9 |
| 20260905233020 | 76 | 15 | 5.2 | 8.7 | 0.00 | 0.00 | 0.00 | 66 | 1009.9 |
| 20260905231526 | 76 | 348 | 4.3 | 9.6 | 0.00 | 0.00 | 0.00 | 65 | 1009.8 |
| 20260905230023 | 78 | 12 | 2.6 | 5.2 | 0.00 | 0.00 | 0.00 | 63 | 1009.6 |
| 20260905224518 | 78 | 45 | 3.5 | 7.8 | 0.00 | 0.00 | 0.00 | 61 | 1009.6 |
| 20260905223018 | 78 | 33 | 5.2 | 8.7 | 0.00 | 0.00 | 0.00 | 62 | 1009.4 |
| 20260905221517 | 77 | 48 | 9.6 | 12.2 | 0.00 | 0.00 | 0.00 | 66 | 1009.3 |
| 20260905220016 | 78 | 36 | 6.1 | 12.2 | 0.00 | 0.00 | 0.00 | 61 | 1009.2 |
| 20260905214517 | 78 | 252 | 5.2 | 10.4 | 0.00 | 0.00 | 0.00 | 62 | 1009.2 |
| 20260905213019 | 78 | 287 | 5.2 | 13.0 | 0.00 | 0.00 | 0.00 | 62 | 1009.1 |
| 20260905211517 | 78 | 267 | 6.1 | 9.6 | 0.00 | 0.00 | 0.00 | 61 | 1009.0 |
| 20260905210013 | 79 | 13 | 6.1 | 10.4 | 0.00 | 0.00 | 0.00 | 58 | 1008.9 |
| 20260905204513 | 79 | 302 | 5.2 | 13.9 | 0.00 | 0.00 | 0.00 | 59 | 1008.8 |
| 20260905203012 | 79 | 301 | 6.1 | 12.2 | 0.00 | 0.00 | 0.00 | 60 | 1008.7 |
| 20260905201511 | 79 | 30 | 3.5 | 9.6 | 0.00 | 0.00 | 0.00 | 59 | 1008.7 |
| 20260905200009 | 79 | 348 | 6.1 | 13.0 | 0.00 | 0.00 | 0.00 | 59 | 1008.8 |
| 20260905194506 | 79 | 293 | 4.3 | 11.3 | 0.00 | 0.00 | 0.00 | 62 | 1008.7 |
| 20260905193005 | 78 | 323 | 2.6 | 10.4 | 0.00 | 0.00 | 0.00 | 60 | 1008.8 |
| 20260905191503 | 78 | 333 | 6.1 | 13.0 | 0.00 | 0.00 | 0.00 | 60 | 1008.8 |
| 20260905190100 | 78 | 300 | 2.6 | 11.3 | 0.00 | 0.00 | 0.00 | 64 | 1008.9 |
| 20260905184602 | 77 | 301 | 7.8 | 13.0 | 0.00 | 0.00 | 0.00 | 65 | 1008.9 |
| 20260905183057 | 77 | 316 | 7.8 | 14.8 | 0.00 | 0.00 | 0.00 | 64 | 1009.1 |
| 20260905181557 | 78 | 268 | 7.0 | 13.9 | 0.00 | 0.00 | 0.00 | 62 | 1009.1 |
| 20260905180056 | 77 | 297 | 5.2 | 13.0 | 0.00 | 0.00 | 0.00 | 63 | 1009.3 |
| 20260905174556 | 78 | 250 | 7.8 | 13.9 | 0.00 | 0.00 | 0.00 | 64 | 1009.2 |
| 20260905173052 | 76 | 281 | 4.3 | 14.8 | 0.00 | 0.00 | 0.00 | 65 | 1009.4 |
| 20260905171610 | 76 | 260 | 7.0 | 13.9 | 0.00 | 0.00 | 0.00 | 66 | 1009.5 |
| 20260905170101 | 76 | 294 | 5.2 | 14.8 | 0.00 | 0.00 | 0.00 | 66 | 1009.5 |
| 20260905164551 | 76 | 203 | 7.0 | 12.2 | 0.00 | 0.00 | 0.00 | 68 | 1009.7 |
| 20260905163053 | 76 | 326 | 7.0 | 13.0 | 0.00 | 0.00 | 0.00 | 67 | 1009.7 |
| 20260905161545 | 75 | 250 | 11.3 | 20.0 | 0.00 | 0.00 | 0.00 | 67 | 1009.5 |
| 20260905160042 | 75 | 305 | 10.4 | 17.4 | 0.00 | 0.00 | 0.00 | 68 | 1009.5 |
| 20260905154554 | 75 | 303 | 9.6 | 13.0 | 0.00 | 0.00 | 0.00 | 66 | 1009.6 |
| 20260905153038 | 74 | 316 | 12.2 | 17.4 | 0.00 | 0.00 | 0.00 | 68 | 1009.4 |
| 20260905151538 | 74 | 285 | 9.6 | 14.8 | 0.00 | 0.00 | 0.00 | 71 | 1009.5 |
| 20260905150042 | 73 | 321 | 9.6 | 14.8 | 0.00 | 0.00 | 0.00 | 69 | 1009.8 |
| 20260905144538 | 74 | 275 | 7.0 | 11.3 | 0.00 | 0.00 | 0.00 | 72 | 1009.7 |
| 20260905143034 | 73 | 336 | 8.7 | 13.9 | 0.00 | 0.00 | 0.00 | 72 | 1009.6 |
| 20260905141535 | 73 | 289 | 6.1 | 12.2 | 0.00 | 0.00 | 0.00 | 76 | 1009.6 |
| 20260905140032 | 72 | 274 | 7.8 | 13.0 | 0.00 | 0.00 | 0.00 | 76 | 1009.6 |
| 20260905134531 | 72 | 328 | 10.4 | 15.6 | 0.00 | 0.00 | 0.00 | 76 | 1009.7 |
| 20260905133030 | 72 | 327 | 7.0 | 10.4 | 0.00 | 0.00 | 0.00 | 76 | 1009.7 |
| 20260905131536 | 72 | 303 | 2.6 | 7.0 | 0.00 | 0.00 | 0.00 | 76 | 1009.7 |
| 20260905130029 | 71 | 323 | 4.3 | 9.6 | 0.00 | 0.00 | 0.00 | 76 | 1009.9 |
| 20260905124529 | 74 | 309 | 1.7 | 4.3 | 0.00 | 0.00 | 0.00 | 73 | 1009.9 |
| 20260905123035 | 72 | 24 | 0.0 | 0.0 | 0.00 | 0.00 | 0.00 | 77 | 1010.1 |
| 20260905121530 | 72 | 84 | 0.0 | 0.0 | 0.00 | 0.00 | 0.00 | 76 | 1010.1 |
| 20260905120026 | 71 | 292 | 0.0 | 0.0 | 0.00 | 0.00 | 0.00 | 76 | 1010.0 |
| 20260905114522 | 71 | 310 | 0.0 | 0.0 | 0.00 | 0.00 | 0.00 | 78 | 1009.9 |
| 20260905113023 | 69 | 284 | 0.0 | 0.0 | 0.00 | 0.00 | 0.00 | 81 | 1009.7 |
| 20260905111522 | 69 | 276 | 0.0 | 0.0 | 0.00 | 0.00 | 0.00 | 82 | 1009.5 |
| 20260905110019 | 67 | 264 | 0.0 | 0.0 | 0.00 | 0.00 | 0.00 | 86 | 1009.3 |
| 20260905104520 | 66 | 276 | 0.9 | 2.6 | 0.00 | 0.00 | 0.00 | 88 | 1009.1 |
| 20260905103021 | 66 | 264 | 0.0 | 2.6 | 0.00 | 0.00 | 0.00 | 87 | 1009.2 |
| 20260905101516 | 66 | 270 | 1.7 | 3.5 | 0.00 | 0.00 | 0.00 | 87 | 1009.1 |
| 20260905100019 | 67 | 264 | 1.7 | 6.1 | 0.00 | 0.00 | 0.00 | 87 | 1008.9 |
| 20260905094513 | 67 | 264 | 1.7 | 4.3 | 0.00 | 0.00 | 0.00 | 86 | 1008.9 |
| 20260905093131 | 67 | 276 | 1.7 | 6.1 | 0.00 | 0.00 | 0.00 | 85 | 1008.7 |
| 20260905091508 | 68 | 304 | 3.5 | 6.1 | 0.00 | 0.00 | 0.00 | 84 | 1008.8 |
| 20260905090008 | 68 | 271 | 5.2 | 8.7 | 0.00 | 0.00 | 0.00 | 84 | 1008.8 |